[[{"header":{"parameterUnit":"m.s-1","parameterCategory":2,"la1":30.2991,"la2":30.254,"lo1":-89.0895,"lo2":-89.0444,"dy":0.0017,"dx":0.0017,"nx":28,"ny":28,"refTime":"2026-01-05T09:00:00:Z","depth":"0","parameterNumber":2,"parameterNumberName":"U-component_of_CURRENTS"},"data":[0,0,0,0,0,0,0,0,0,0,0,0,0,0,0,0,0,0,0,0,0,0,0,0,0,0,0,0,0,0,0,0,0,0,0,0,0,0,0,0,0,0,0,0,0,0,0,0,0,0,0,0,0,0,0,0,0,0,0.0794,0.0791,0,0.0621,0.062,0.0619,0.0591,0.0591,0.0591,0.0591,0.0618,0.0618,0.0619,0,0,0,0,0,0,0,0,0,0,0,0,0,0.113,0.1125,0.0794,0.079,0.0787,0.0621,0.062,0.0619,0.0591,0.0591,0.0591,0.0591,0.0618,0.0618,0.0619,0,0,0,0,0,0,0,0,0,0,0,0,0,0.0988,0.1124,0.0795,0.0741,0.0733,0.0621,0.062,0.0619,0.059,0.0591,0.0591,0.0591,0.0617,0.0618,0.0619,0.0624,0,0,0.0622,0.0623,0,0,0,0,0,0,0,0,0.0997,0.0978,0.0752,0.0744,0.0735,0.0613,0.0747,0.0625,0.059,0.0661,0.0591,0.0591,0.0625,0.0625,0.0612,0.0625,0.0626,0.0622,0.0623,0.0623,0.0624,0,0,0,0,0,0,0,0.1006,0.0985,0.0741,0.0748,0.0738,0.0735,0.0716,0.0725,0.0661,0.0655,0.0649,0.0604,0.0624,0.0611,0.0613,0.0627,0.0622,0.0623,0.0624,0.0624,0.0638,0.0638,0,0,0,0,0,0,0.0993,0.0994,0.0746,0.0735,0.0851,0.0727,0.0707,0.0665,0.0656,0.0648,0.0604,0.0603,0.0609,0.0611,0.0614,0.0629,0.0623,0.0624,0.0625,0.0638,0.0638,0.0638,0,0,0,0,0,0,0.1001,0.0973,0.0753,0.0849,0.0818,0.072,0.0674,0.0662,0.0645,0.0612,0.0612,0.0598,0.0609,0.0612,0.0624,0.063,0.0625,0.0626,0.0639,0.0638,0.0638,0.0654,0,0,0,0,0,0,0.1012,0.0978,0.0974,0.0847,0.0811,0.0695,0.0672,0.0658,0.061,0.0608,0.0607,0.0609,0.0609,0.0622,0.0625,0.0631,0.0627,0.0639,0.0638,0.0638,0.0653,0.0654,0.0654,0,0,0,0,0,0.1025,0.1051,0.0976,0.0946,0.08,0.0693,0.0678,0.0619,0.061,0.0608,0.0605,0.0609,0.0621,0.0623,0.0626,0.0633,0.0639,0.0639,0.0638,0.0653,0.0654,0.0654,0,0,0,0,0,0,0.1231,0.1043,0.0961,0.0933,0.0805,0.0683,0.0688,0.0621,0.0614,0.0627,0.0612,0.0614,0.0624,0.0625,0.0627,0.0632,0.0629,0.0629,0.0639,0.0639,0.064,0.065,0.0627,0,0,0,0,0,0.1252,0.1215,0.1013,0.1,0.093,0.08,0.0759,0.0691,0.064,0.0636,0.0623,0.0622,0.0623,0.0629,0.063,0.064,0.0706,0.0643,0.0643,0.0644,0.0652,0.0721,0.0729,0.0636,0.0636,0.0636,0,0,0.1331,0.1223,0.1204,0.1038,0.0947,0.0851,0.0783,0.0712,0.0659,0.0645,0.0634,0.0627,0.0625,0.0631,0.0635,0.0634,0.0721,0.0643,0.0644,0.0652,0.0721,0.0731,0.0739,0.0636,0.0636,0.0636,0,0,0.1456,0.1358,0.134,0.1216,0.1041,0.0936,0.0905,0.0755,0.0722,0.0673,0.0659,0.0652,0.0646,0.064,0.0639,0.0644,0.0719,0.0644,0.0659,0.0726,0.0735,0.0743,0.0919,0.0943,0.0646,0.0646,0.0646,0,0.1548,0.1479,0.1329,0.1247,0.1164,0.0968,0.091,0.0828,0.0712,0.0704,0.0678,0.0663,0.0649,0.0662,0.065,0.0646,0.0738,0.066,0.073,0.0739,0.0747,0.0924,0.095,0.0646,0.0646,0.0646,0.0646,0,0.1597,0.154,0.1528,0.1339,0.1238,0.1168,0.0968,0.0907,0.083,0.0751,0.0738,0.0704,0.0708,0.0681,0.0663,0.0706,0.0777,0.0725,0.0735,0.0758,0.0944,0.0971,0.0647,0.0647,0.0647,0.0647,0,0,0.1758,0.16,0.1582,0.1528,0.1275,0.1204,0.1101,0.0969,0.0956,0.0834,0.0861,0.0783,0.0763,0.076,0.0734,0.0753,0.0895,0.0763,0.0767,0.0954,0.1148,0.1282,0.1326,0.0862,0.0865,0.0867,0.1285,0,0.1822,0.1779,0.1643,0.1573,0.1512,0.1306,0.1241,0.1101,0.1009,0.099,0.0905,0.0924,0.0793,0.0834,0.0814,0.0884,0.0954,0.0793,0.1084,0.1095,0.1221,0.1355,0.1345,0.1722,0.1312,0.1317,0.132,0,0.1831,0.1823,0.1808,0.1701,0.1654,0.1585,0.1459,0.1374,0.1257,0.1215,0.1157,0.1103,0.111,0.1003,0.1109,0.1024,0.1092,0.1123,0.114,0.127,0.1276,0.1614,0.1787,0.1701,0.1362,0.1359,0.1356,0,0.1973,0.1894,0.1928,0.187,0.1727,0.1711,0.1624,0.1473,0.1437,0.1392,0.1419,0.1355,0.1421,0.1408,0.1428,0.1305,0.1603,0.1453,0.165,0.1666,0.1717,0.1732,0.1845,0.1561,0.156,0.1559,0.1558,0,0.2019,0.2021,0.2024,0.2021,0.2044,0.189,0.1884,0.1781,0.1718,0.1714,0.1584,0.1628,0.1521,0.1624,0.1582,0.1765,0.1751,0.1721,0.1781,0.1732,0.1742,0.1712,0.1616,0.1575,0.1571,0.1568,0.1565,0,0.2063,0.2078,0.2105,0.2097,0.2094,0.2096,0.2006,0.1997,0.196,0.1974,0.199,0.1936,0.2075,0.2042,0.2132,0.2061,0.2132,0.2232,0.2244,0.2294,0.2303,0.2207,0.2318,0.2276,0.2506,0.2512,0.2517,0,0.2062,0.2111,0.2179,0.2202,0.219,0.2195,0.2171,0.2105,0.209,0.2145,0.2179,0.2342,0.2376,0.2624,0.2598,0.27,0.2461,0.274,0.2436,0.2378,0.2315,0.2099,0.2035,0.2562,0.2567,0.2571,0.2574,0,0.2058,0.2113,0.2149,0.2241,0.2264,0.226,0.2251,0.2288,0.2238,0.2297,0.2387,0.246,0.2721,0.2793,0.2979,0.2974,0.2613,0.2826,0.2727,0.2366,0.2176,0.2141,0.2283,0.2609,0.2606,0.2603,0.2601,0.26,0.2041,0.2069,0.2157,0.2214,0.2252,0.227,0.2252,0.2276,0.23,0.233,0.2479,0.2573,0.2796,0.3019,0.3066,0.3106,0.2924,0.2939,0.2851,0.2656,0.2516,0.2807,0.319,0.319,0.319,0.319,0.3189,0,0.1984,0.2027,0.2098,0.2154,0.2175,0.2213,0.2238,0.2214,0.2233,0.234,0.2415,0.2617,0.2804,0.2953,0.3102,0.3065,0.2863,0.3003,0.263,0.2576,0.2846,0.2743,0.3091,0.3091,0.3091,0.3091,0.3091,0.3091,0.1952,0.1983,0.2036,0.2056,0.2091,0.2069,0.2073,0.2081,0.2129,0.2193,0.2268,0.2382,0.2616,0.2871,0.2932,0.2903,0.2642,0.2648,0.256,0.2667,0.2648,0.263,0.2509,0.2802,0.2801,0.2198,0.2194,0.219]},{"header":{"parameterUnit":"m.s-1","parameterCategory":2,"la1":30.2991,"la2":30.254,"lo1":-89.0895,"lo2":-89.0444,"dy":0.0017,"dx":0.0017,"nx":28,"ny":28,"refTime":"2026-01-05T09:00:00:Z","depth":"0","parameterNumber":3,"parameterNumberName":"V-component_of_CURRENTS"},"data":[0,0,0,0,0,0,0,0,0,0,0,0,0,0,0,0,0,0,0,0,0,0,0,0,0,0,0,0,0,0,0,0,0,0,0,0,0,0,0,0,0,0,0,0,0,0,0,0,0,0,0,0,0,0,0,0,0,0,-0.0114,-0.0115,0,-0.0195,-0.0195,-0.0196,-0.0222,-0.0222,-0.0222,-0.0222,-0.0237,-0.0238,-0.0238,0,0,0,0,0,0,0,0,0,0,0,0,0,0.0007,0.0005,-0.0114,-0.0115,-0.0117,-0.0195,-0.0195,-0.0196,-0.0222,-0.0222,-0.0222,-0.0222,-0.0237,-0.0238,-0.0238,0,0,0,0,0,0,0,0,0,0,0,0,0,-0.0052,0.0005,-0.0113,-0.0143,-0.0147,-0.0195,-0.0195,-0.0196,-0.0222,-0.0222,-0.0222,-0.0222,-0.0237,-0.0238,-0.0238,-0.0236,0,0,-0.0239,-0.0239,0,0,0,0,0,0,0,0,-0.0048,-0.0055,-0.0137,-0.0141,-0.0146,-0.0203,-0.0159,-0.0208,-0.0222,-0.0188,-0.0222,-0.0223,-0.0223,-0.0225,-0.0233,-0.0237,-0.0238,-0.0239,-0.024,-0.024,-0.024,0,0,0,0,0,0,0,-0.0044,-0.0052,-0.014,-0.0139,-0.0144,-0.0157,-0.0165,-0.0168,-0.0198,-0.0191,-0.0194,-0.0212,-0.0224,-0.0232,-0.0233,-0.0238,-0.0239,-0.024,-0.024,-0.024,-0.0266,-0.0267,0,0,0,0,0,0,-0.0045,-0.0048,-0.0138,-0.0143,-0.0103,-0.0159,-0.0168,-0.018,-0.0199,-0.0205,-0.0212,-0.0213,-0.0232,-0.0233,-0.0234,-0.0255,-0.024,-0.024,-0.024,-0.0266,-0.0266,-0.0267,0,0,0,0,0,0,-0.0042,-0.0051,-0.0135,-0.0102,-0.0114,-0.0161,-0.0175,-0.0182,-0.0193,-0.0217,-0.022,-0.0217,-0.0232,-0.0233,-0.0245,-0.0255,-0.024,-0.0241,-0.0265,-0.0266,-0.0266,-0.0283,0,0,0,0,0,0,-0.0038,-0.005,-0.0045,-0.0102,-0.0116,-0.0164,-0.0176,-0.0183,-0.0206,-0.0208,-0.0222,-0.0224,-0.0232,-0.0245,-0.0246,-0.0255,-0.0241,-0.0265,-0.0265,-0.0266,-0.0282,-0.0285,-0.0287,0,0,0,0,0,-0.0033,-0.003,-0.0044,-0.0055,-0.0113,-0.0165,-0.0173,-0.0203,-0.0206,-0.0212,-0.0225,-0.0224,-0.0251,-0.0245,-0.0246,-0.0256,-0.0264,-0.0265,-0.0266,-0.0281,-0.0284,-0.0287,0,0,0,0,0,0,0.0013,-0.0035,-0.0051,-0.0066,-0.0114,-0.0172,-0.0178,-0.0202,-0.0217,-0.0217,-0.0229,-0.0232,-0.0247,-0.0247,-0.0241,-0.0267,-0.0257,-0.0258,-0.0268,-0.0271,-0.0273,-0.0262,-0.0241,0,0,0,0,0,0.0026,0.0024,-0.004,-0.0053,-0.0073,-0.0123,-0.0143,-0.0174,-0.0205,-0.0213,-0.0226,-0.0237,-0.0252,-0.0257,-0.0268,-0.0278,-0.0249,-0.0285,-0.0287,-0.0289,-0.0281,-0.0249,-0.0247,-0.027,-0.027,-0.027,0,0,0.0034,0.0011,0.0006,-0.0042,-0.0076,-0.0114,-0.0134,-0.0174,-0.0204,-0.021,-0.0234,-0.0244,-0.0256,-0.0275,-0.0281,-0.0276,-0.0267,-0.029,-0.0292,-0.0283,-0.0249,-0.0247,-0.0245,-0.0271,-0.0271,-0.027,0,0,0.0041,0.0032,0.0026,-0.0009,-0.0065,-0.01,-0.0112,-0.0172,-0.0191,-0.0225,-0.0236,-0.025,-0.0272,-0.0286,-0.0294,-0.0311,-0.0279,-0.0315,-0.0317,-0.0286,-0.0283,-0.0281,-0.0234,-0.0227,-0.0316,-0.0316,-0.0316,0,0.0048,0.0036,0.0013,-0.0013,-0.0037,-0.0093,-0.0121,-0.0158,-0.0215,-0.0219,-0.0233,-0.0258,-0.0278,-0.029,-0.031,-0.0315,-0.0282,-0.0308,-0.0287,-0.0284,-0.0281,-0.0234,-0.0226,-0.0317,-0.0317,-0.0317,-0.0317,0,0.0039,0.0029,0.002,-0.0022,-0.005,-0.0083,-0.0144,-0.0167,-0.0195,-0.0226,-0.0242,-0.027,-0.0274,-0.0297,-0.0317,-0.031,-0.0288,-0.0293,-0.0278,-0.0279,-0.023,-0.0221,-0.0319,-0.0318,-0.0318,-0.0318,0,0,0.0042,0.002,0.0012,0.0011,-0.0054,-0.0077,-0.012,-0.0162,-0.0155,-0.022,-0.0196,-0.027,-0.0268,-0.0278,-0.0296,-0.0293,-0.0261,-0.0289,-0.0287,-0.0236,-0.017,-0.0132,-0.0118,-0.0256,-0.0255,-0.0254,-0.0141,0,0.0035,0.0014,-0.0001,-0.0024,-0.0036,-0.0077,-0.0095,-0.0137,-0.0158,-0.0145,-0.0191,-0.0176,-0.0266,-0.0241,-0.0266,-0.0241,-0.024,-0.029,-0.0181,-0.0177,-0.0138,-0.0108,-0.0129,-0.0028,-0.0132,-0.0131,-0.0129,0,0.0025,0.0021,0.0003,0.0013,0.0006,-0.0016,-0.0017,-0.0041,-0.0054,-0.0054,-0.0072,-0.008,-0.0094,-0.0149,-0.0149,-0.0171,-0.0181,-0.018,-0.0175,-0.0126,-0.0123,-0.0045,-0.0008,-0.0166,-0.0116,-0.0117,-0.0118,0,0.0054,0.003,0.0032,0.002,0.0007,0.0008,0.0002,-0.0014,0.0005,0.0026,0.0082,0.0035,0.0082,0.0028,-0.0007,-0.0059,0.003,-0.0032,-0.0013,-0.001,0.0001,0.0004,-0.0096,-0.0029,-0.0029,-0.0029,-0.003,0,0.0066,0.0075,0.0049,0.0051,0.0077,0.0053,0.009,0.0087,0.0122,0.0185,0.0145,0.0219,0.0133,0.0161,0.0073,0.0081,0.0095,0.0006,0.0026,-0.0005,-0.0004,-0.0118,-0.0204,-0.0025,-0.0026,-0.0027,-0.0028,0,0.0117,0.0089,0.0104,0.0094,0.0093,0.0115,0.0147,0.0188,0.0223,0.0321,0.0349,0.0395,0.0449,0.0373,0.0353,0.0239,0.0147,0.0206,0.0185,0.0199,0.0031,-0.0054,-0.0054,-0.0115,0.0238,0.0239,0.0241,0,0.0149,0.0153,0.0143,0.0158,0.0159,0.0182,0.021,0.0228,0.0284,0.043,0.0504,0.0608,0.0678,0.0677,0.0532,0.0439,0.0269,0.0332,0.0199,0.0038,-0.0042,-0.0098,-0.0155,0.0211,0.0212,0.0213,0.0213,0,0.0221,0.0207,0.0222,0.0243,0.0264,0.0298,0.0344,0.04,0.0461,0.0561,0.0724,0.0808,0.0849,0.0791,0.0685,0.056,0.0217,0.0348,0.0181,-0.0065,-0.0129,-0.0183,0.0126,0.0221,0.022,0.022,0.0219,0.0219,0.0281,0.0305,0.0308,0.0338,0.0368,0.0422,0.0469,0.0539,0.0642,0.081,0.0873,0.1035,0.0953,0.0823,0.0639,0.0303,0.0308,0.0148,0.0067,0.0033,-0.0063,0.0277,0.0388,0.0388,0.0389,0.0389,0.0389,0,0.0337,0.0359,0.0404,0.0433,0.0489,0.0481,0.0569,0.0632,0.0761,0.0925,0.1055,0.1147,0.0948,0.0723,0.0328,0.0052,-0.0096,-0.0108,-0.0247,-0.0289,0.0013,-0.0032,-0.0006,-0.0006,-0.0006,-0.0006,-0.0006,-0.0006,0.0368,0.0409,0.043,0.0524,0.056,0.0636,0.0687,0.0792,0.0913,0.1132,0.1271,0.1376,0.125,0.0446,-0.0145,-0.03,-0.0528,-0.052,-0.0615,-0.0496,-0.0481,-0.0467,-0.0534,-0.0614,-0.0614,-0.0914,-0.0918,-0.092]}],[{"header":{"parameterUnit":"m.s-1","parameterCategory":2,"la1":30.2991,"la2":30.254,"lo1":-89.0895,"lo2":-89.0444,"dy":0.0017,"dx":0.0017,"nx":28,"ny":28,"refTime":"2026-01-05T09:00:00:Z","depth":"2","parameterNumber":2,"parameterNumberName":"U-component_of_CURRENTS"},"data":[0,0,0,0,0,0,0,0,0,0,0,0,0,0,0,0,0,0,0,0,0,0,0,0,0,0,0,0,0,0,0,0,0,0,0,0,0,0,0,0,0,0,0,0,0,0,0,0,0,0,0,0,0,0,0,0,0,0,0.0074,0.0076,0,0.0188,0.0188,0.0189,0.0213,0.0213,0.0213,0.0213,0.0218,0.0218,0.0218,0,0,0,0,0,0,0,0,0,0,0,0,0,-0.0143,-0.014,0.0074,0.0076,0.0078,0.0188,0.0188,0.0189,0.0213,0.0213,0.0213,0.0213,0.0218,0.0218,0.0218,0,0,0,0,0,0,0,0,0,0,0,0,0,-0.0051,-0.0139,0.0073,0.0111,0.0117,0.0187,0.0188,0.0189,0.0213,0.0213,0.0213,0.0213,0.0218,0.0218,0.0218,0.0214,0,0,0.0218,0.0218,0,0,0,0,0,0,0,0,-0.0056,-0.0045,0.0103,0.0109,0.0115,0.0196,0.0115,0.0196,0.0213,0.0165,0.0213,0.0214,0.0208,0.0208,0.0216,0.0215,0.0215,0.0218,0.0218,0.0219,0.0219,0,0,0,0,0,0,0,-0.0063,-0.0049,0.0108,0.0106,0.0114,0.0117,0.0129,0.0129,0.0173,0.0169,0.0174,0.0204,0.0208,0.0216,0.0216,0.0215,0.0218,0.0219,0.0219,0.0219,0.0208,0.0208,0,0,0,0,0,0,-0.0054,-0.0055,0.0104,0.0112,0.004,0.0122,0.0135,0.0161,0.0176,0.0183,0.0203,0.0205,0.0216,0.0216,0.0216,0.0215,0.0219,0.0219,0.0219,0.0208,0.0208,0.0208,0,0,0,0,0,0,-0.0059,-0.0041,0.01,0.004,0.0059,0.0126,0.0155,0.0163,0.0184,0.0205,0.0207,0.0218,0.0216,0.0216,0.0215,0.0215,0.0219,0.0219,0.0209,0.0208,0.0208,0.0211,0,0,0,0,0,0,-0.0066,-0.0044,-0.0038,0.004,0.0064,0.0143,0.0156,0.0166,0.0207,0.0209,0.0218,0.0219,0.0216,0.0215,0.0215,0.0215,0.0219,0.0209,0.0208,0.0208,0.0211,0.0211,0.021,0,0,0,0,0,-0.0074,-0.0055,-0.0038,-0.0019,0.0075,0.0145,0.0155,0.0196,0.0207,0.0213,0.0216,0.0219,0.0212,0.0215,0.0215,0.0215,0.0209,0.0208,0.0208,0.0211,0.0211,0.021,0,0,0,0,0,0,-0.0131,-0.0048,-0.0028,0.0019,0.0077,0.0153,0.0177,0.0202,0.0211,0.0212,0.0217,0.0216,0.0214,0.0214,0.0217,0.0209,0.021,0.021,0.0213,0.0212,0.0212,0.0245,0.0219,0,0,0,0,0,-0.0142,-0.0115,-0.0029,0.0009,0.0044,0.0108,0.0139,0.0168,0.0202,0.0208,0.0218,0.0218,0.021,0.0211,0.0206,0.0205,0.025,0.0204,0.0204,0.0203,0.0229,0.0261,0.0266,0.0205,0.0205,0.0205,0,0,-0.0145,-0.0099,-0.0079,-0.0003,0.0049,0.0092,0.0125,0.0182,0.0201,0.0205,0.0221,0.0217,0.0208,0.0203,0.0203,0.0205,0.0253,0.0202,0.0202,0.0229,0.0261,0.0267,0.0273,0.0205,0.0205,0.0205,0,0,-0.0143,-0.0099,-0.0079,-0.0031,0.0048,0.0086,0.0105,0.0179,0.0195,0.0214,0.0213,0.0218,0.0215,0.0212,0.0207,0.0203,0.0246,0.0193,0.0222,0.0251,0.0257,0.0262,0.0372,0.0387,0.0195,0.0195,0.0195,0,-0.0154,-0.0115,-0.0061,-0.0025,0.0018,0.0084,0.0119,0.0146,0.0201,0.022,0.0218,0.0234,0.0222,0.0224,0.022,0.0205,0.0255,0.0223,0.0253,0.0259,0.0265,0.0375,0.0392,0.0195,0.0195,0.0195,0.0195,0,-0.0129,-0.0104,-0.0076,-0.0021,0.0023,0.0073,0.0132,0.0164,0.0193,0.0223,0.0244,0.0237,0.0256,0.0239,0.0229,0.0256,0.0294,0.0246,0.0259,0.0271,0.0387,0.0404,0.0195,0.0195,0.0195,0.0195,0,0,-0.0122,-0.0077,-0.0066,-0.0049,0.0032,0.0076,0.0115,0.0174,0.0212,0.024,0.0279,0.0268,0.0291,0.0287,0.0274,0.0298,0.0386,0.0296,0.0297,0.0417,0.0521,0.0492,0.0509,0.0338,0.034,0.0341,0.0603,0,-0.0115,-0.0083,-0.0054,-0.0012,0.0022,0.0086,0.0123,0.018,0.0222,0.0268,0.0283,0.0307,0.0298,0.0308,0.0332,0.0368,0.0426,0.0325,0.0482,0.049,0.0468,0.0524,0.045,0.0669,0.062,0.0623,0.0625,0,-0.0087,-0.0075,-0.0049,-0.0004,0.0023,0.0053,0.0144,0.0183,0.0259,0.0298,0.0342,0.0354,0.0415,0.0376,0.0507,0.0446,0.0499,0.0529,0.0538,0.0522,0.0489,0.0638,0.0703,0.0655,0.0653,0.065,0.0648,0,-0.0096,-0.0062,-0.0053,-0.0029,0.0032,0.0061,0.0107,0.0195,0.0248,0.0322,0.038,0.0434,0.0484,0.0544,0.0625,0.0576,0.077,0.0703,0.0745,0.0748,0.0724,0.0719,0.0795,0.0795,0.0794,0.0794,0.0793,0,-0.0081,-0.007,-0.006,-0.0042,-0.0008,0.0051,0.011,0.0177,0.027,0.0344,0.0397,0.0461,0.0521,0.0623,0.0678,0.0801,0.0831,0.0794,0.0805,0.0726,0.0718,0.0713,0.07,0.0804,0.0801,0.0799,0.0798,0,-0.0078,-0.0076,-0.0062,-0.0026,-0.0012,0.0023,0.0114,0.0165,0.0276,0.0375,0.0407,0.0524,0.0647,0.0733,0.0851,0.0886,0.0982,0.1007,0.0952,0.0948,0.0944,0.0928,0.1111,0.1112,0.1112,0.1113,0.1114,0,-0.0078,-0.0075,-0.0059,-0.005,-0.0035,0.0014,0.0056,0.0158,0.0218,0.0411,0.0456,0.0597,0.0694,0.0903,0.0942,0.1079,0.1039,0.1091,0.0943,0.098,0.0974,0.0956,0.094,0.096,0.096,0.0959,0.0959,0,-0.0077,-0.0077,-0.0068,-0.0055,-0.0031,0.0007,0.0072,0.0123,0.0261,0.0372,0.0534,0.0635,0.0799,0.0882,0.1022,0.1059,0.1054,0.1079,0.1156,0.0849,0.0846,0.0836,0.0824,0.0953,0.0954,0.0954,0.0954,0.0955,-0.0082,-0.0079,-0.0074,-0.0056,-0.0031,0.0015,0.0058,0.0139,0.0253,0.0441,0.0534,0.07,0.0772,0.092,0.0977,0.1009,0.1035,0.1021,0.102,0.1021,0.0914,0.0906,0.1013,0.1014,0.1014,0.1015,0.1016,0,-0.0088,-0.0084,-0.0072,-0.0053,-0.0028,0.0001,0.0079,0.0134,0.0256,0.042,0.0574,0.0648,0.0764,0.0836,0.0892,0.0948,0.0904,0.0914,0.0852,0.0859,0.0864,0.0744,0.0802,0.0802,0.0801,0.08,0,0,-0.0093,-0.0091,-0.0084,-0.0055,-0.0029,0.0023,0.0075,0.017,0.0277,0.0425,0.0541,0.0688,0.0788,0.076,0.0794,0.0813,0.0809,0.078,0.0949,0.0878,0.0882,0.0928,0.0751,0,0,0,0,0]},{"header":{"parameterUnit":"m.s-1","parameterCategory":2,"la1":30.2991,"la2":30.254,"lo1":-89.0895,"lo2":-89.0444,"dy":0.0017,"dx":0.0017,"nx":28,"ny":28,"refTime":"2026-01-05T09:00:00:Z","depth":"2","parameterNumber":3,"parameterNumberName":"V-component_of_CURRENTS"},"data":[0,0,0,0,0,0,0,0,0,0,0,0,0,0,0,0,0,0,0,0,0,0,0,0,0,0,0,0,0,0,0,0,0,0,0,0,0,0,0,0,0,0,0,0,0,0,0,0,0,0,0,0,0,0,0,0,0,0,-0.0238,-0.0238,0,-0.0262,-0.0263,-0.0263,-0.0278,-0.0278,-0.0278,-0.0278,-0.0293,-0.0294,-0.0294,0,0,0,0,0,0,0,0,0,0,0,0,0,-0.0224,-0.0224,-0.0238,-0.0238,-0.0238,-0.0262,-0.0263,-0.0263,-0.0278,-0.0278,-0.0278,-0.0278,-0.0293,-0.0294,-0.0294,0,0,0,0,0,0,0,0,0,0,0,0,0,-0.0238,-0.0224,-0.0238,-0.0249,-0.025,-0.0262,-0.0263,-0.0263,-0.0278,-0.0278,-0.0278,-0.0278,-0.0293,-0.0294,-0.0294,-0.0295,0,0,-0.0296,-0.0296,0,0,0,0,0,0,0,0,-0.0237,-0.0238,-0.0247,-0.0248,-0.0249,-0.0267,-0.0264,-0.0273,-0.0278,-0.0267,-0.0278,-0.0278,-0.0284,-0.0285,-0.0289,-0.0296,-0.0297,-0.0296,-0.0296,-0.0296,-0.0296,0,0,0,0,0,0,0,-0.0236,-0.0237,-0.0248,-0.0247,-0.0249,-0.0259,-0.0261,-0.0266,-0.0274,-0.0268,-0.0269,-0.0272,-0.0284,-0.0289,-0.029,-0.0297,-0.0296,-0.0296,-0.0296,-0.0297,-0.0321,-0.0321,0,0,0,0,0,0,-0.0231,-0.0236,-0.0247,-0.0248,-0.0243,-0.0259,-0.0261,-0.0261,-0.0275,-0.0277,-0.0272,-0.0272,-0.0288,-0.0289,-0.029,-0.0307,-0.0296,-0.0297,-0.0297,-0.032,-0.0321,-0.0321,0,0,0,0,0,0,-0.0231,-0.0232,-0.0246,-0.0243,-0.0245,-0.0259,-0.0259,-0.0262,-0.027,-0.0277,-0.0279,-0.0278,-0.0288,-0.029,-0.0299,-0.0307,-0.0297,-0.0297,-0.032,-0.0321,-0.0321,-0.033,0,0,0,0,0,0,-0.023,-0.0232,-0.0235,-0.0243,-0.0245,-0.0255,-0.0259,-0.0262,-0.0271,-0.0273,-0.0283,-0.0285,-0.0288,-0.0299,-0.03,-0.0307,-0.0298,-0.032,-0.032,-0.0321,-0.0329,-0.033,-0.0332,0,0,0,0,0,-0.023,-0.0229,-0.0235,-0.0237,-0.0248,-0.0255,-0.0257,-0.0268,-0.0272,-0.0276,-0.0284,-0.0285,-0.0304,-0.0299,-0.0301,-0.0308,-0.0319,-0.032,-0.0321,-0.0328,-0.033,-0.0332,0,0,0,0,0,0,-0.0221,-0.0231,-0.0238,-0.0239,-0.0249,-0.0257,-0.0264,-0.0269,-0.0279,-0.0283,-0.0288,-0.029,-0.0302,-0.0303,-0.0299,-0.0317,-0.0312,-0.0313,-0.0317,-0.0319,-0.032,-0.0321,-0.0298,0,0,0,0,0,-0.0222,-0.0226,-0.0236,-0.0238,-0.0244,-0.0255,-0.0261,-0.0268,-0.0276,-0.0281,-0.0288,-0.0296,-0.0306,-0.031,-0.0318,-0.0326,-0.0321,-0.0333,-0.0334,-0.0335,-0.0337,-0.0333,-0.0333,-0.0324,-0.0324,-0.0324,0,0,-0.0217,-0.0224,-0.0226,-0.0237,-0.0247,-0.0256,-0.0259,-0.0269,-0.0276,-0.0281,-0.0294,-0.0301,-0.0309,-0.0322,-0.0327,-0.0324,-0.0335,-0.0336,-0.0337,-0.0338,-0.0333,-0.0334,-0.0335,-0.0324,-0.0324,-0.0324,0,0,-0.0214,-0.0219,-0.0227,-0.0237,-0.0253,-0.0258,-0.0261,-0.0273,-0.0281,-0.0293,-0.03,-0.0311,-0.0324,-0.0331,-0.0337,-0.0349,-0.0342,-0.0352,-0.036,-0.0355,-0.0356,-0.0356,-0.0348,-0.0348,-0.0352,-0.0352,-0.0352,0,-0.0208,-0.0221,-0.0229,-0.0243,-0.0252,-0.0259,-0.027,-0.0277,-0.029,-0.0298,-0.0299,-0.0323,-0.0329,-0.0344,-0.0352,-0.0352,-0.0347,-0.0353,-0.0356,-0.0357,-0.0357,-0.0349,-0.0348,-0.0353,-0.0353,-0.0353,-0.0353,0,-0.0211,-0.0229,-0.0234,-0.0253,-0.0263,-0.0271,-0.0282,-0.0289,-0.0298,-0.0308,-0.0326,-0.0334,-0.0348,-0.0353,-0.0359,-0.0367,-0.0361,-0.0358,-0.0351,-0.0359,-0.0349,-0.0349,-0.0354,-0.0353,-0.0353,-0.0353,0,0,-0.018,-0.0227,-0.023,-0.025,-0.027,-0.0276,-0.0288,-0.0303,-0.0309,-0.0325,-0.0335,-0.0357,-0.0363,-0.037,-0.0374,-0.0373,-0.0373,-0.0369,-0.0369,-0.0359,-0.0359,-0.0399,-0.0402,-0.0369,-0.0369,-0.0369,-0.0351,0,-0.0182,-0.0208,-0.0233,-0.0259,-0.0274,-0.0291,-0.0298,-0.0312,-0.0322,-0.033,-0.0345,-0.0354,-0.0368,-0.037,-0.0377,-0.0369,-0.0372,-0.0378,-0.0356,-0.0355,-0.0387,-0.0403,-0.0384,-0.037,-0.035,-0.035,-0.035,0,-0.0178,-0.0198,-0.0223,-0.0268,-0.0275,-0.0292,-0.0304,-0.0314,-0.0328,-0.0334,-0.0351,-0.0357,-0.0365,-0.0369,-0.037,-0.0372,-0.0373,-0.0367,-0.0366,-0.0401,-0.0394,-0.036,-0.037,-0.0349,-0.0349,-0.0349,-0.0349,0,-0.0145,-0.0194,-0.0213,-0.0226,-0.0267,-0.0286,-0.0305,-0.032,-0.0314,-0.0335,-0.0324,-0.0349,-0.0339,-0.0351,-0.0352,-0.0358,-0.0343,-0.0347,-0.0384,-0.0386,-0.0365,-0.0366,-0.0351,-0.0351,-0.0351,-0.0351,-0.0351,0,-0.0132,-0.0156,-0.0205,-0.0216,-0.0238,-0.0274,-0.0283,-0.0305,-0.0306,-0.0279,-0.0324,-0.0295,-0.0332,-0.0327,-0.0343,-0.0363,-0.0337,-0.0392,-0.0389,-0.0369,-0.037,-0.0348,-0.0348,-0.0351,-0.0351,-0.0351,-0.0351,0,-0.0108,-0.0135,-0.0164,-0.0211,-0.0228,-0.0242,-0.0266,-0.0254,-0.027,-0.023,-0.0228,-0.0245,-0.0257,-0.0296,-0.0306,-0.0342,-0.036,-0.0372,-0.035,-0.0348,-0.0407,-0.0408,-0.042,-0.0421,-0.0422,-0.0423,-0.0424,0,-0.0107,-0.0115,-0.0153,-0.016,-0.0192,-0.0213,-0.0208,-0.0231,-0.0196,-0.0178,-0.0138,-0.0167,-0.0152,-0.0219,-0.0307,-0.0368,-0.037,-0.0395,-0.0421,-0.0421,-0.0417,-0.0415,-0.0414,-0.0385,-0.0385,-0.0385,-0.0386,0,-0.0105,-0.0111,-0.0128,-0.0131,-0.0139,-0.0126,-0.0121,-0.0082,-0.0065,-0.003,0.0036,0.0036,-0.0073,-0.0155,-0.0301,-0.0341,-0.0395,-0.0408,-0.0394,-0.0387,-0.0391,-0.0386,-0.0385,-0.0389,-0.0388,-0.0388,-0.0388,-0.0388,-0.0103,-0.0103,-0.0106,-0.0108,-0.0088,-0.0023,0.0016,0.0061,0.0132,0.0204,0.0184,0.0184,0.0004,-0.0185,-0.0286,-0.041,-0.0428,-0.0452,-0.0449,-0.0445,-0.0462,-0.047,-0.0484,-0.0484,-0.0484,-0.0484,-0.0485,0,-0.0101,-0.009,-0.0085,-0.0056,0.0003,0.0007,0.0097,0.0156,0.0276,0.03,0.0345,0.0207,0.0067,-0.0113,-0.0303,-0.043,-0.0414,-0.0454,-0.0405,-0.0403,-0.0401,-0.0413,-0.0423,-0.0422,-0.0422,-0.0422,0,0,-0.0097,-0.0083,-0.007,0.0022,0.0068,0.0183,0.0258,0.0335,0.0373,0.0417,0.0405,0.0322,0.0086,-0.0039,-0.0225,-0.0311,-0.0316,-0.0322,-0.0365,-0.0286,-0.0281,-0.0403,-0.0421,0,0,0,0,0]}],[{"header":{"parameterUnit":"m.s-1","parameterCategory":2,"la1":30.2991,"la2":30.254,"lo1":-89.0895,"lo2":-89.0444,"dy":0.0017,"dx":0.0017,"nx":28,"ny":28,"refTime":"2026-01-05T09:00:00:Z","depth":"4","parameterNumber":2,"parameterNumberName":"U-component_of_CURRENTS"},"data":[0,0,0,0,0,0,0,0,0,0,0,0,0,0,0,0,0,0,0,0,0,0,0,0,0,0,0,0,0,0,0,0,0,0,0,0,0,0,0,0,0,0,0,0,0,0,0,0,0,0,0,0,0,0,0,0,0,0,0.0047,0.0048,0,0.0097,0.0097,0.0098,0.0111,0.0111,0.0111,0.0111,0.0105,0.0104,0.0104,0,0,0,0,0,0,0,0,0,0,0,0,0,-0.0041,-0.004,0.0047,0.0048,0.0049,0.0097,0.0097,0.0098,0.0111,0.0111,0.0111,0.0111,0.0105,0.0104,0.0104,0,0,0,0,0,0,0,0,0,0,0,0,0,-0.0002,-0.0039,0.0047,0.0065,0.0068,0.0097,0.0097,0.0098,0.0111,0.0111,0.0111,0.0112,0.0105,0.0104,0.0104,0.0097,0,0,0.0103,0.0102,0,0,0,0,0,0,0,0,-0.0005,0.0,0.0062,0.0064,0.0067,0.0102,0.0064,0.0096,0.0111,0.009,0.0111,0.0112,0.0102,0.0101,0.0104,0.0097,0.0097,0.0103,0.0102,0.0102,0.0102,0,0,0,0,0,0,0,-0.0007,-0.0002,0.0062,0.0063,0.0066,0.007,0.0075,0.007,0.0089,0.0091,0.0094,0.0107,0.0102,0.0105,0.0104,0.0096,0.0103,0.0102,0.0102,0.0102,0.0096,0.0096,0,0,0,0,0,0,-0.0004,-0.0004,0.0061,0.0064,0.0036,0.0072,0.0077,0.0087,0.009,0.0093,0.0106,0.0107,0.0106,0.0105,0.0104,0.0107,0.0102,0.0102,0.0101,0.0096,0.0096,0.0096,0,0,0,0,0,0,-0.0006,0.0001,0.0059,0.0035,0.0043,0.0073,0.0084,0.0088,0.0095,0.0103,0.0104,0.011,0.0106,0.0105,0.0104,0.0106,0.0102,0.0101,0.0095,0.0096,0.0096,0.0106,0,0,0,0,0,0,-0.0009,0.0,-0.0003,0.0035,0.0045,0.0078,0.0084,0.0089,0.0104,0.0106,0.0107,0.0106,0.0106,0.0105,0.0103,0.0106,0.0101,0.0095,0.0096,0.0096,0.0105,0.0106,0.0107,0,0,0,0,0,-0.0012,-0.0014,-0.0004,0.0004,0.0043,0.0079,0.0083,0.0102,0.0104,0.0108,0.0109,0.0106,0.0105,0.0104,0.0103,0.0105,0.0095,0.0096,0.0096,0.0105,0.0106,0.0107,0,0,0,0,0,0,-0.0052,-0.0011,0.0,0.0011,0.0044,0.0083,0.0084,0.0102,0.0106,0.0103,0.0106,0.0106,0.0106,0.0104,0.0103,0.0104,0.01,0.01,0.0108,0.0109,0.0109,0.0119,0.01,0,0,0,0,0,-0.0061,-0.0056,-0.0008,-0.0001,0.0014,0.0048,0.0061,0.0081,0.0099,0.0101,0.0106,0.0106,0.0105,0.0106,0.0103,0.0103,0.0113,0.0104,0.0105,0.0106,0.0113,0.0129,0.0133,0.0097,0.0097,0.0097,0,0,-0.007,-0.0051,-0.0045,-0.0009,0.0012,0.0038,0.0055,0.0079,0.0099,0.0098,0.0108,0.0107,0.0105,0.0107,0.0107,0.0106,0.0121,0.0106,0.0107,0.0114,0.013,0.0134,0.0137,0.0097,0.0097,0.0097,0,0,-0.0087,-0.0072,-0.0071,-0.0043,-0.0004,0.0023,0.0033,0.0074,0.0086,0.0102,0.0104,0.0107,0.0108,0.0113,0.0113,0.0117,0.0124,0.0114,0.0128,0.0144,0.0147,0.015,0.0169,0.0173,0.0116,0.0116,0.0116,0,-0.01,-0.0089,-0.0064,-0.005,-0.0025,0.0018,0.0038,0.006,0.0096,0.0106,0.0105,0.0116,0.0112,0.0122,0.0125,0.0119,0.0132,0.0124,0.0146,0.0149,0.0152,0.017,0.0175,0.0117,0.0117,0.0117,0.0117,0,-0.01,-0.0095,-0.0091,-0.0058,-0.003,-0.0005,0.0042,0.0064,0.0083,0.0108,0.0122,0.0122,0.0133,0.013,0.0129,0.0148,0.0152,0.0144,0.0145,0.0157,0.0175,0.018,0.0118,0.0117,0.0117,0.0117,0,0,-0.0109,-0.0097,-0.0093,-0.0085,-0.003,-0.0004,0.0028,0.0073,0.0096,0.0119,0.0143,0.0143,0.0153,0.0154,0.0154,0.0168,0.0197,0.0169,0.0169,0.019,0.024,0.0249,0.0255,0.0196,0.0197,0.0198,0.0245,0,-0.0113,-0.0106,-0.009,-0.0067,-0.0051,-0.0005,0.0023,0.0068,0.0103,0.0136,0.0148,0.0166,0.016,0.0166,0.0181,0.0193,0.0211,0.0185,0.0223,0.0224,0.0233,0.0261,0.02,0.0248,0.025,0.025,0.0251,0,-0.0105,-0.0104,-0.0093,-0.0074,-0.0061,-0.0038,0.0023,0.0053,0.0111,0.0132,0.0162,0.0183,0.0211,0.02,0.0238,0.0225,0.0237,0.0245,0.0246,0.0256,0.0243,0.0234,0.026,0.0259,0.0259,0.0258,0.0258,0,-0.0109,-0.01,-0.0099,-0.0085,-0.0051,-0.0038,-0.001,0.0052,0.0081,0.0136,0.0167,0.0201,0.0228,0.0245,0.0279,0.026,0.0325,0.0297,0.0316,0.0317,0.0289,0.0285,0.0325,0.0325,0.0325,0.0325,0.0325,0,-0.0105,-0.0104,-0.0105,-0.0097,-0.0083,-0.0052,-0.0019,0.0016,0.0071,0.0118,0.0162,0.0211,0.0243,0.0293,0.0299,0.0338,0.0344,0.0332,0.0334,0.0292,0.0288,0.0293,0.0288,0.0327,0.0326,0.0326,0.0326,0,-0.0104,-0.0107,-0.0107,-0.0093,-0.0085,-0.007,-0.0027,0.0006,0.0053,0.0119,0.014,0.023,0.0299,0.0335,0.0379,0.0373,0.0396,0.0406,0.0378,0.0375,0.0368,0.0364,0.0423,0.0423,0.0424,0.0425,0.0425,0,-0.0106,-0.0109,-0.0106,-0.0099,-0.0096,-0.0073,-0.0046,-0.0004,0.0038,0.0139,0.0175,0.0269,0.0327,0.0403,0.0429,0.0455,0.0446,0.045,0.039,0.0384,0.0381,0.0375,0.037,0.0426,0.0426,0.0427,0.0427,0,-0.011,-0.0113,-0.0113,-0.0099,-0.0083,-0.0057,-0.0019,0.0009,0.0077,0.0112,0.0217,0.028,0.0368,0.0419,0.0456,0.0465,0.0439,0.0456,0.0454,0.0398,0.0389,0.0384,0.0378,0.0429,0.0429,0.0429,0.0428,0,-0.0115,-0.0115,-0.0112,-0.0096,-0.0074,-0.0031,-0.0017,0.0043,0.0085,0.0183,0.0222,0.0318,0.0377,0.0428,0.0459,0.0478,0.0456,0.0421,0.042,0.0417,0.0395,0.0383,0.0436,0,0,0,0,0,-0.0118,-0.0114,-0.0102,-0.0076,-0.005,-0.0029,0.0014,0.0035,0.0092,0.0159,0.0189,0.0271,0.0352,0.0403,0.0421,0.0453,0.0452,0.0471,0.0408,0.0442,0.044,0.0415,0,0,0,0,0,0,-0.0119,-0.0116,-0.0104,-0.0057,-0.003,0.0011,0.0041,0.0078,0.0117,0.017,0.0218,0.025,0.0332,0.0342,0.0417,0.0428,0.0381,0.0515,0.0514,0.0444,0.0441,0.0439,0.0413,0,0,0,0,0]},{"header":{"parameterUnit":"m.s-1","parameterCategory":2,"la1":30.2991,"la2":30.254,"lo1":-89.0895,"lo2":-89.0444,"dy":0.0017,"dx":0.0017,"nx":28,"ny":28,"refTime":"2026-01-05T09:00:00:Z","depth":"4","parameterNumber":3,"parameterNumberName":"V-component_of_CURRENTS"},"data":[0,0,0,0,0,0,0,0,0,0,0,0,0,0,0,0,0,0,0,0,0,0,0,0,0,0,0,0,0,0,0,0,0,0,0,0,0,0,0,0,0,0,0,0,0,0,0,0,0,0,0,0,0,0,0,0,0,0,0.0012,0.0012,0,0.0012,0.0012,0.0012,0.0003,0.0003,0.0003,0.0003,-0.0023,-0.0023,-0.0024,0,0,0,0,0,0,0,0,0,0,0,0,0,-0.0005,-0.0005,0.0012,0.0012,0.0012,0.0012,0.0012,0.0012,0.0003,0.0003,0.0003,0.0003,-0.0023,-0.0023,-0.0024,0,0,0,0,0,0,0,0,0,0,0,0,0,-0.0002,-0.0005,0.0012,0.0009,0.0009,0.0012,0.0012,0.0012,0.0003,0.0003,0.0003,0.0003,-0.0022,-0.0023,-0.0024,-0.0028,0,0,-0.0027,-0.0027,0,0,0,0,0,0,0,0,-0.0002,-0.0002,0.0009,0.0009,0.0009,0.0009,-0.0004,-0.0002,0.0003,0.0004,0.0003,0.0003,-0.0013,-0.0015,-0.0017,-0.0029,-0.003,-0.0027,-0.0028,-0.0028,-0.0028,0,0,0,0,0,0,0,-0.0003,-0.0002,0.001,0.001,0.0009,0.0005,0.0005,-0.0004,-0.0006,0.0004,0.0004,0.0006,-0.0014,-0.0016,-0.0017,-0.003,-0.0027,-0.0028,-0.0028,-0.0029,-0.0049,-0.0049,0,0,0,0,0,0,0.0001,-0.0002,0.001,0.001,0.0005,0.0005,0.0005,0.0008,-0.0005,-0.0007,0.0006,0.0006,-0.0014,-0.0016,-0.0018,-0.0022,-0.0028,-0.0029,-0.0029,-0.0049,-0.0049,-0.0049,0,0,0,0,0,0,0.0001,0.0002,0.001,0.0005,0.0006,0.0006,0.0008,0.0008,0.0,-0.0003,-0.0005,-0.0001,-0.0014,-0.0017,-0.0025,-0.0024,-0.0029,-0.003,-0.0049,-0.0049,-0.0049,-0.0031,0,0,0,0,0,0,0.0,0.0002,-0.0004,0.0006,0.0007,0.0011,0.0009,0.0008,0.0003,0.0002,-0.001,-0.0012,-0.0015,-0.0024,-0.0026,-0.0025,-0.0031,-0.0049,-0.0049,-0.0049,-0.0032,-0.003,-0.0029,0,0,0,0,0,-0.0,-0.0005,-0.0004,-0.0003,0.0001,0.0012,0.0011,0.001,0.0003,0.0001,-0.0006,-0.0012,-0.0025,-0.0025,-0.0027,-0.0026,-0.0049,-0.0049,-0.0049,-0.0032,-0.0031,-0.0029,0,0,0,0,0,0,-0.0019,-0.0005,-0.0005,-0.0006,0.0002,0.0011,0.0005,0.0006,-0.0002,-0.0007,-0.0012,-0.0015,-0.0022,-0.0027,-0.0027,-0.0032,-0.0038,-0.0038,-0.0025,-0.0023,-0.0022,-0.0026,-0.0032,0,0,0,0,0,-0.0024,-0.0022,-0.0009,-0.0011,-0.0008,-0.0004,-0.0004,-0.0002,-0.0002,-0.0006,-0.0011,-0.0019,-0.0023,-0.0026,-0.0032,-0.0036,-0.0056,-0.0037,-0.0036,-0.0035,-0.004,-0.0065,-0.0067,-0.0048,-0.0048,-0.0048,0,0,-0.0032,-0.0024,-0.0024,-0.0015,-0.0012,-0.0,-0.0005,-0.0004,0.0005,-0.0008,-0.0008,-0.0018,-0.0024,-0.0025,-0.0029,-0.003,-0.0052,-0.0035,-0.0034,-0.004,-0.0066,-0.0068,-0.0069,-0.0048,-0.0048,-0.0048,0,0,-0.0037,-0.004,-0.0037,-0.0027,-0.0018,-0.0009,-0.0009,-0.0001,-0.0002,-0.0002,-0.0007,-0.0016,-0.0023,-0.0022,-0.0024,-0.0022,-0.0047,-0.0026,-0.0021,-0.0045,-0.0047,-0.0049,-0.008,-0.0085,-0.0022,-0.0022,-0.0022,0,-0.0047,-0.0041,-0.0036,-0.0025,-0.0018,-0.0011,-0.0003,0.0004,0.0008,0.0004,-0.0001,-0.0018,-0.002,-0.0022,-0.0017,-0.0019,-0.0043,-0.0024,-0.0044,-0.0046,-0.0048,-0.008,-0.0085,-0.0022,-0.0022,-0.0022,-0.0022,0,-0.004,-0.0039,-0.0037,-0.0017,-0.0009,-0.0003,0.0015,0.0018,0.0014,0.0016,0.0003,-0.0004,-0.0018,-0.0013,-0.0013,-0.0027,-0.0042,-0.0041,-0.0047,-0.0049,-0.0082,-0.0088,-0.002,-0.0021,-0.0021,-0.0021,0,0,-0.0045,-0.0035,-0.0033,-0.003,-0.0007,0.0001,0.0018,0.0029,0.0025,0.0025,0.001,0.0013,-0.0007,-0.001,-0.0015,-0.0028,-0.0058,-0.0041,-0.0042,-0.0072,-0.0124,-0.0103,-0.0108,-0.0064,-0.0065,-0.0066,-0.0142,0,-0.0042,-0.0026,-0.0021,-0.0008,0.0001,0.0012,0.0023,0.0033,0.0031,0.0019,0.001,-0.0011,0.0,-0.002,-0.0027,-0.0057,-0.0074,-0.0039,-0.0118,-0.012,-0.0101,-0.0113,-0.0068,-0.0147,-0.0148,-0.0149,-0.015,0,-0.0031,-0.0024,-0.0012,-0.0011,-0.0008,0.0,0.0008,0.0015,0.0011,-0.0001,-0.0016,-0.003,-0.005,-0.0047,-0.0092,-0.0074,-0.0099,-0.0117,-0.012,-0.0112,-0.011,-0.0144,-0.0161,-0.0161,-0.016,-0.0159,-0.0158,0,-0.0029,-0.002,-0.0015,-0.0008,0.0002,-0.0001,-0.0001,0.0003,0.0001,-0.0027,-0.0045,-0.0065,-0.0095,-0.012,-0.0146,-0.0131,-0.0204,-0.0188,-0.0193,-0.0192,-0.0197,-0.0194,-0.0226,-0.0226,-0.0226,-0.0225,-0.0225,0,-0.0021,-0.0021,-0.0018,-0.0013,-0.0015,-0.0014,-0.0021,-0.0026,-0.0041,-0.0049,-0.0069,-0.0082,-0.0117,-0.0151,-0.0169,-0.0203,-0.0226,-0.02,-0.021,-0.0188,-0.0183,-0.0201,-0.0198,-0.0228,-0.0228,-0.0227,-0.0227,0,-0.0022,-0.0016,-0.0014,-0.0012,-0.0014,-0.002,-0.003,-0.0036,-0.0059,-0.0073,-0.0088,-0.0114,-0.015,-0.0181,-0.0233,-0.0237,-0.0271,-0.0278,-0.0268,-0.0274,-0.024,-0.0234,-0.0292,-0.0292,-0.0292,-0.0292,-0.0292,0,-0.0023,-0.0019,-0.0013,-0.0014,-0.0018,-0.0025,-0.0028,-0.0043,-0.0047,-0.0079,-0.0087,-0.013,-0.0141,-0.0206,-0.0235,-0.0286,-0.0277,-0.0315,-0.0256,-0.0243,-0.0247,-0.0241,-0.0236,-0.0292,-0.0292,-0.0292,-0.0292,0,-0.0029,-0.0026,-0.0024,-0.0022,-0.0026,-0.0025,-0.0035,-0.0035,-0.0051,-0.0064,-0.008,-0.0109,-0.0149,-0.0183,-0.0235,-0.026,-0.03,-0.0313,-0.0313,-0.0257,-0.0243,-0.0246,-0.024,-0.0291,-0.0291,-0.0291,-0.0291,0,-0.004,-0.0039,-0.0036,-0.0037,-0.0036,-0.0039,-0.0035,-0.0038,-0.0043,-0.0062,-0.0062,-0.0105,-0.0126,-0.0171,-0.0212,-0.0244,-0.0232,-0.024,-0.0243,-0.0244,-0.0193,-0.0165,-0.0205,0,0,0,0,0,-0.0054,-0.0055,-0.0055,-0.0056,-0.0055,-0.0055,-0.0046,-0.004,-0.0039,-0.0041,-0.005,-0.0074,-0.0124,-0.015,-0.0173,-0.0207,-0.0248,-0.0238,-0.0262,-0.0289,-0.029,-0.0234,0,0,0,0,0,0,-0.0063,-0.0064,-0.0061,-0.0075,-0.0078,-0.008,-0.0071,-0.0067,-0.0059,-0.0056,-0.0073,-0.0082,-0.0124,-0.0108,-0.0175,-0.0186,-0.0205,-0.0259,-0.0259,-0.0289,-0.0289,-0.029,-0.0233,0,0,0,0,0]}]]